DELTA 1 DEB, 42578

Orbit data source: Space-Track

DELTA 1 DEB, 42578 is space debris in LEO originally from a launch on Tue, 06 Nov 1973 UTC launched from the Air Force Western Test Range (AFWTR). Debris objects in space refer to the collection of defunct objects orbiting the Earth. Examples of debris include non-operational satellites, rocket bodies, and fragments generated from explosions, collisions, or faulty payload assembly.

Loading next visibility...
Identifier
42578, 1973-086HS
Orbit
LEO
Country
Flag of USUS
Related business
Manufacturer
Unknown
Mission
Spacecraft
Bus & Motor
Unknown
Mass
Unknown
Launch date (UTC)
1973-11-06 (52 years ago)
Launch vehicle
Unknown
Launch site
Air Force Western Test Range (AFWTR)
Object type
Payload
Rocket body
Debris
Shape & HBR
Unknown shape, 0.1 m
Radar Cross Section
Small (<0.1 m²)

Expand to show TLE details & history
Last TLE update: 8 months ago

TLE from 8 months ago
0 DELTA 1 DEB
1 42578U 73086HS  25174.40787616 -.00002498  00000-0 -34010-1 0  9992
2 42578 100.7551 151.9954 0761841 283.3635  68.3599 11.35671331 40474
Epoch: 2025-06-23T09:47Z
TLE epoch observation values (Epoch: 2025-06-23T09:47:20.500Z)
Latitude
-0.00004°
Longitude
93.34141°
Altitude
1,793.547 km
Speed
7.065 km/s
True Right ascension
10h 07m 58s
True Declination
0° 00' 00"
Sunlit
Object was in daylight at epoch
Visualization orbit readout
Latitude
Unknown
Longitude
Unknown
Altitude
Unknown
Speed
Unknown
Apparent Right ascension
Unknown
Apparent Declination
Unknown
Sunlit
N/A
Visualization observer readout
Local Sidereal Time
04:47:14
Azimuth
Unknown
Elevation
Unknown
Doppler factor
Unknown
Orbital elements
Apogee altitude
2,616.769 km
Perigee altitude
1,343.253 km
Semi-major axis
8,358.148 km
Eccentricity
0.07618
Inclination
100.7551°
RAAN
151.9954°
Arg. of periapsis
283.3635°
True anomaly
76.73945°
Mean anomaly
68.3599°
Eccentric anomaly
72.52344°
Mean motion
2.84039 °/min
Orbital period
126.74 mins
BSTAR
-0.03401
Loading maneuver chart data...
Computing Atmospheric mass density...
Loading historical data...
Loading historical data...
Loading historical data...
Loading historical data...
Loading historical data...
Loading historical data...
Loading historical data...

Documentation

Showing up to 5 results
|